CZ-4C DEB, 43270

Orbit data source: Space-Track

CZ-4C DEB, 43270 is space debris in SSO originally from a launch on Sat, 31 Mar 2018 UTC launched from the Taiyaun Space Center, China (TSC). Debris objects in space refer to the collection of defunct objects orbiting the Earth. Examples of debris include non-operational satellites, rocket bodies, and fragments generated from explosions, collisions, or faulty payload assembly.

Loading next visibility...
Identifier
43270, 2018-031J
Orbit
SSO
Last TLE update
1 day ago
Origin
Manufacturer
Unknown
Mission
Spacecraft
Bus & Motor
Unknown
Mass
Unknown
Launch date (UTC)
2018-03-31 (7 years ago)
Launch vehicle
Unknown
Launch site
Taiyaun Space Center, China (TSC)
Object type
Payload
Rocket body
Debris
Shape & HBR
Unknown
Radar Cross Section
Small (<0.1 m²)

Expand to show TLE details & history

TLE from 1 day ago
0 CZ-4C DEB
1 43270U 18031J   25181.96776294  .00000478  00000-0  69971-4 0  9991
2 43270  97.7696 244.1503 0004975   8.7888 351.3410 14.79905476400985
Epoch: 2025-06-30T23:13Z
TLE epoch observation values (Epoch: 2025-06-30T23:13:34.718Z)
Latitude
-0.00004°
Longitude
-23.51432°
Altitude
629.2 km
Speed
7.546 km/s
True Right ascension
16h 16m 36s
True Declination
0° 00' 00"
Sunlit
Object was in full shadow at epoch
Visualization orbit readout
Latitude
32.82207°
Longitude
162.71106°
Altitude
636.694 km
Speed
7.541 km/s
Apparent Right ascension
04h 44m 08s
Apparent Declination
-1° 31' 47"
Sunlit
Object is in daylight
Visualization observer readout
Local Sidereal Time
16:47:18
Azimuth
1.277° NNE
Elevation
-51.607°
Doppler factor
1
Orbital elements
Apogee altitude
630.143 km
Perigee altitude
623.173 km
Semi-major axis
7,004.795 km
Eccentricity
0.0005
Inclination
97.7696°
RAAN
244.1503°
Arg. of periapsis
8.7888°
True anomaly
Unknown
Mean anomaly
351.341°
Eccentric anomaly
Unknown
Mean motion
3.70212 °/min
Orbital period
97.24 mins
BSTAR
0.000069971
Loading maneuver chart data...
Loading SW <> Apogee altitude chart data...
Loading historical data...
Loading historical data...
Loading historical data...
Loading historical data...
Loading historical data...
Loading historical data...
Loading historical data...

CZ-4C DEB Visibility forecast

Observer location: undefined°, undefined°

Span
Click to sort rows by Start time (UTC) header in descending order
Start Az.
Max El. time (UTC)
Max El. Az.
Max El.
End time (UTC)
End Az.
6 mins2025-07-02 16:22:47.802Z40.976° NE2025-07-02 16:25:47.802Z98.506° ESE27.47°2025-07-02 16:28:47.802Z153.602° SSE
5 mins2025-07-02 17:59:47.802Z328.99° NNW2025-07-02 18:01:47.802Z293.478° NW20.83°2025-07-02 18:04:47.802Z245.274° WSW
5 mins2025-07-03 03:18:47.802Z106.963° ESE2025-07-03 03:20:47.802Z70.129° E21.944°2025-07-03 03:23:47.802Z20.102° NNE
6 mins2025-07-03 04:54:47.802Z217.767° SW2025-07-03 04:56:47.802Z257.266° W25.622°2025-07-03 05:00:47.802Z324.304° NNW
|